Location: Unspecified
(0.0000°N, 0.0000°E)
Time: 09:39:01
(UTC+00:00)

S-56A Canister/Altair - Pass Details

Date: 22 December 2018
Orbit: 633 x 2500 km, 38.9° (Epoch: 17 January)

Event Time Altitude Azimuth Distance (km) Brightness Sun altitude
Rises 05:41:36 0° 339° (NNW) 5,423 11.4 -3.9°
Reaches altitude 10° 05:47:05 10° 358° (N) 4,734 11.3 -2.6°
Maximum altitude 05:55:01 17° 34° (NE) 4,459 11.6 -0.8°
Drops below altitude 10° 06:03:30 10° 69° (ENE) 5,159 12.5 1.2°
Sets 06:09:49 0° 87° (E) 6,121 13.5 2.6°
